User: anonymous   Login
Location: NJAA Observatory
(40.6819°N, 74.8979°W)
Time: 23:27:04
(UTC-04:00)
Language:

Cosmos 220 Rocket - Orbit

View from above orbital plane
View from above orbital plane
View from above satellite
View from above satellite

Ground track
Ground track

The orbit data is extracted from the following two-line orbital elements,

1 03230U 68040B   16269.97557056  .00000484  00000-0  53874-4 0  9991
2 03230  74.0359  51.8884 0029468  73.3880 287.0533 14.89955849596167
Epoch (UTC): 25 September 2016 23:24:49
Eccentricity: 0.0029468
inclination: 74.0359°
perigee height: 577 km
apogee height: 618 km
right ascension of ascending node: 51.8884°
argument of perigee: 73.3880°
revolutions per day: 14.89955849
mean anomaly at epoch: 287.0533°
orbit number at epoch: 59616

The dashed part of the orbit path shows where the satellite is in the earth's shadow,  

DLR